Regional Weather Roundup
Issued by NWS State College, PA

Home | Current Version | Previous Version | Graphics & Text | Print | Product List | Glossary Off
Versions: 1 2 3 4 5 6 7 8 9 10 11 12 13 14 15 16 17 18 19 20 21 22 23 24 25 26 27 28 29 30 31 32 33 34 35 36 37 38 39 40 41 42 43 44 45 46 47 48 49 50

000
ASUS41 KCTP 191710
RWRCTP
NATIONAL WEATHER SERVICE STATE COLLEGE PA
100 PM EDT TUE SEP 19 2017

Note: "fair" indicates few or no clouds below 12,000 feet with no
significant weather and/or obstructions to visibility.

* = STATION THAT DOES NOT REPORT PRECIPITATION /E.G. RAIN...SNOW...ETC/
    THUNDER OR FOG.

PAZ002>004-007>009-013>016-020>023-029>032-191800-
WESTERN PENNSYLVANIA

CITY           SKY/WX    TMP DP  RH WIND       PRES   REMARKS
ERIE           MOSUNNY   79  66  64 SE9       30.02S
MEADVILLE      SUNNY     78  65  63 S6        30.05F
FRANKLIN*      SUNNY     75  64  68 S5        30.07F
NEW CASTLE     FAIR      79  65  62 VRB3      30.04F
BEAVER COUNTY  SUNNY     81  63  54 S3        30.04F
BUTLER*        MOSUNNY   76  65  68 CALM      30.05F
PITTSBURGH INT MOSUNNY   78  63  59 S3        30.03F
PITTSBURGH     SUNNY     76  61  59 CALM      30.04S
INDIANA*       SUNNY     75  61  60 CALM      30.08F
LATROBE        SUNNY     75  63  64 CALM      30.05F
WASHINGTON CO* SUNNY     77  64  65 CALM      30.04F
$$

PAZ004>006-010>012-017>019-024>028-033>037-041-042-045-046-049>053-191800-
CENTRAL PENNSYLVANIA

CITY           SKY/WX    TMP DP  RH WIND       PRES   REMARKS
BRADFORD       PTSUNNY   72  60  66 NW3       30.09F
DUBOIS         SUNNY     73  58  59 MISG      30.07F
CLEARFIELD     SUNNY     74  60  61 E5        30.07F
JOHNSTOWN      MOSUNNY   72  60  66 W5        30.08F
ALTOONA        MOSUNNY   74  61  63 CALM      30.07F
STATE COLLEGE  CLOUDY    70  61  73 CALM      30.07F
WILLIAMSPORT   MOSUNNY   75  64  68 CALM      30.02F
SELINSGROVE    CLOUDY    71  65  81 VRB3      30.05F
FT INDIANTOWN  MOSUNNY   75  67  76 N7        30.00F
CAPITAL CITY   CLOUDY    75  63  66 NW10      30.01F
HARRISBURG     CLOUDY    75  67  76 NW8       30.00F
YORK           CLOUDY    75  67  76 N8        30.01F
$$

PAZ038>040-043-044-047-048-054-055-060>062-067>071-191800-
EASTERN PENNSYLVANIA

CITY           SKY/WX    TMP DP  RH WIND       PRES   REMARKS
SCRANTON       MOSUNNY   77  63  61 E8        30.04F
MOUNT POCONO   PTSUNNY   72  62  71 NE16      30.06F
ALLENTOWN      MOSUNNY   79  66  64 NE12      29.99F
QUAKERTOWN*    MOSUNNY   77  66  69 NE9       29.99F
READING        MOSUNNY   80  68  66 N9G18     29.97F
LANCASTER      MOSUNNY   78  69  73 N6        29.99F
COATESVILLE    MOSUNNY   77  66  69 N13       29.99F
POTTSTOWN      MOSUNNY   77  66  68 NE9       29.98F
BLUE BELL      CLOUDY    75  64  69 NE7       29.97F
DOYLESTOWN     NOT AVBL
WILLOW GROVE   NOT AVBL
NORTH PHILA    CLOUDY    78  65  63 NE15      29.96F
PHILADELPHIA   PTSUNNY   77  64  64 NE15      29.94F
$$




USA.gov is the U.S. government's official web portal to all federal, state and local government web resources and services.